User: anonymous   Login
Location: Unspecified
(0.0000°N, 0.0000°E)
Time: 10:14:36
(UTC+00:00)
Language:

Gonets-D1 - Orbit

View from above orbital plane
View from above orbital plane
View from above satellite
View from above satellite

Ground track
Ground track

The orbit data is extracted from the following two-line orbital elements,

1 24725U 97006A   17080.90325328 +.00000030 +00000-0 +11181-3 0  9998
2 24725 082.6050 257.9552 0009266 189.3612 170.7307 12.60665808924665
Epoch (UTC): 21 March 2017 21:40:41
Eccentricity: 0.0009266
inclination: 82.6050°
perigee height: 1413 km
apogee height: 1427 km
right ascension of ascending node: 257.9552°
argument of perigee: 189.3612°
revolutions per day: 12.60665808
mean anomaly at epoch: 170.7307°
orbit number at epoch: 92466

The dashed part of the orbit path shows where the satellite is in the earth's shadow,  

DLR